HARP

Last updated on Tue Apr 05 2022 00:02:05 GMT+0000 (Coordinated Universal Time)

1 45256U 98067QZ 22093.96600961 .02046645 48454-2 13437-2 0 9999 2 45256 51.6390 284.0990 0009457 296.9079 63.0972 16.17573350120904

Satellite not in orbit